Weather History for KFMN - October, 2012

Change the Weather History Date:

Tuesday, October 30, 2012

  Actual Average Record
Temperature  
Mean Temperature 50 °F -  
Max Temperature 69 °F 57 °F 75 °F (2008)
Min Temperature 30 °F 31 °F 15 °F (1989)
Degree Days  
Heating Degree Days 16    
Moisture  
Dew Point 14 °F    
Average Humidity 24    
Maximum Humidity 44    
Minimum Humidity 6    
Precipitation  
Precipitation 0.00 in - - ()
Sea Level Pressure  
Sea Level Pressure 30.16 in    
Wind  
Wind Speed 5 mph (SW)    
Max Wind Speed 16 mph    
Max Gust Speed 24 mph    
Visibility 10 miles    
Events      
Averages and records for this station are not official NWS values.
T = Trace of Precipitation, MM = Missing Value Source: NWS Daily Summary

Daily Weather History Graph

Daily Weather History Graph

Search for Another Location

Airport or City:

Trip Planner

Search our weather history database for the weather conditions in past years. The results will help you decide how hot, cold, wet, or windy it might be!

Date:

Astronomy

Oct. 30, 2012 Rise Set
Actual Time 7:35 AM MDT 6:17 PM MDT
Civil Twilight 7:08 AM MDT 6:44 PM MDT
Nautical Twilight 6:37 AM MDT 7:14 PM MDT
Astronomical Twilight 6:07 AM MDT 7:44 PM MDT
Moon 6:51 PM MDT (10/30) 8:22 AM MDT (10/30)
Length of Visible Light 11h 35m
Length of Day
10h 42m
Full, 99% of the Moon is Illuminated
Oct 30
Full
Nov 6
Last Quarter
Nov 13
New
Nov 20
First Quarter
Nov 28
Full

Hourly Weather History & Observations

Time (MDT) Temp. Windchill Dew Point Humidity Pressure Visibility Wind Dir Wind Speed Gust Speed Precip Events Conditions
12:53 AM 39.0 °F - 9.0 °F 29% 30.17 in 10.0 mi Calm Calm - N/A   Clear
1:53 AM 39.9 °F 35.8 °F 10.0 °F 29% 30.14 in 10.0 mi NW 5.8 mph - N/A   Clear
2:53 AM 34.0 °F 31.0 °F 9.0 °F 35% 30.17 in 10.0 mi East 3.5 mph - N/A   Clear
3:53 AM 35.1 °F 29.3 °F 12.9 °F 40% 30.17 in 10.0 mi ENE 6.9 mph - N/A   Clear
4:53 AM 32.0 °F 26.4 °F 9.0 °F 38% 30.17 in 10.0 mi East 5.8 mph - N/A   Clear
5:53 AM 30.0 °F 24.1 °F 9.0 °F 41% 30.19 in 10.0 mi ENE 5.8 mph - N/A   Clear
6:53 AM 32.0 °F 24.8 °F 12.0 °F 44% 30.21 in 10.0 mi East 8.1 mph - N/A   Clear
7:53 AM 32.0 °F 26.4 °F 12.0 °F 44% 30.24 in 10.0 mi East 5.8 mph - N/A   Clear
9:53 AM 43.0 °F 40.3 °F 15.1 °F 32% 30.24 in 10.0 mi ESE 4.6 mph - N/A   Clear
10:53 AM 50.0 °F - 15.1 °F 25% 30.22 in 10.0 mi Variable 3.5 mph - N/A   Clear
11:53 AM 55.0 °F - 16.0 °F 22% 30.20 in 10.0 mi SE 4.6 mph - N/A   Clear
12:53 PM 62.1 °F - 15.1 °F 16% 30.17 in 10.0 mi SSW 4.6 mph - N/A   Clear
1:53 PM 64.0 °F - 17.1 °F 16% 30.13 in 10.0 mi WSW 6.9 mph - N/A   Clear
2:53 PM 66.9 °F - 17.1 °F 15% 30.10 in 10.0 mi West 12.7 mph - N/A   Clear
3:53 PM 69.1 °F - 17.1 °F 14% 30.08 in 10.0 mi West 12.7 mph 19.6 mph N/A   Clear
4:53 PM 69.1 °F - 15.1 °F 13% 30.08 in 10.0 mi West 16.1 mph 24.2 mph N/A   Clear
6:53 PM 61.0 °F - 16.0 °F 17% 30.11 in 10.0 mi West 8.1 mph - N/A   Clear
7:53 PM 54.0 °F - 16.0 °F 22% 30.15 in 10.0 mi West 5.8 mph - N/A   Clear
8:53 PM 53.1 °F - 16.0 °F 23% 30.13 in 10.0 mi Calm Calm - N/A   Clear
9:53 PM 52.0 °F - 16.0 °F 24% 30.13 in 10.0 mi Calm Calm - N/A   Clear
10:53 PM 50.0 °F - 16.0 °F 26% 30.12 in 10.0 mi Calm Calm - N/A   Clear
11:53 PM 50.0 °F - 17.1 °F 27% 30.10 in 10.0 mi West 4.6 mph - N/A   Clear